Flag for U.S.A. Weather past 2 weeks in Dover, Delaware, U.S.A.

Now
37 °F

Sunny.


Feels Like: 28 °F
Forecast: 31 / 41 °F
Wind: 15 mph from Northwest

Location: Dover Air Force Base

Current Time: Dec 18, 2014 at 9:12:17 AM

Latest Report: Dec 18, 2014 at 8:58 AM


Visibility: 10 mi

Pressure: 30.10 "Hg

Humidity: 50%

Dew point: 20 °F

Location of DoverLocation

Historic Weather in Dover — Graph

°F

Dover temperature yesterday

Maximum temperature yesterday: 53 °F (at 11:58 AM)
Minimum temperature yesterday: 37 °F (at 11:58 PM)
Average temperature yesterday: 45 °F

Past Weeks' High & Low Weather Summary

 TemperatureHumidityPressure
High53 °F (Dec 17, 11:58 AM)100% (Dec 3, 7:58 AM)30.57 "Hg (Dec 3, 7:58 AM)
Low31 °F (Dec 8, 2:58 AM)40% (Dec 7, 4:58 PM)29.70 "Hg (Dec 10, 2:58 PM)
Average41 °F79%30.09 "Hg
* Reported Dec 3 7:58 AM — Dec 18 7:58 AM, Dover, Weather by CustomWeather, © 2014

Note: Actual official high and low records may vary slightly from our data, if they occured in-between our weather recording intervals... More about our weather records

Advertising

Dover weather history for previous 24 hours

 ConditionsComfort  
Time TempWeatherWind HumidityBarometerVisibility
7:58 AM
Dec 18
35 °FSunny.13 mph55%30.10 "Hg10 mi
6:58 AM36 °FPassing clouds.15 mph58%30.08 "Hg10 mi
5:58 AM37 °FPassing clouds.13 mph54%30.07 "Hg10 mi
4:58 AM36 °FPassing clouds.12 mph60%30.05 "Hg10 mi
3:58 AM37 °FPassing clouds.13 mph56%30.02 "Hg10 mi
2:58 AM38 °FOvercast.13 mph56%30.02 "Hg10 mi
1:58 AM37 °FOvercast.12 mph61%30.01 "Hg10 mi
12:58 AM36 °FPassing clouds.6 mph65%30.00 "Hg10 mi
11:58 PM
Dec 17
37 °FClear.9 mph61%30.00 "Hg10 mi
10:58 PM38 °FClear.14 mph57%29.98 "Hg10 mi
9:58 PM39 °FClear.15 mph55%29.99 "Hg10 mi
8:58 PM40 °FClear.15 mph57%29.98 "Hg10 mi
7:58 PM42 °FClear.13 mph58%29.97 "Hg10 mi
6:58 PM44 °FClear.6 mph53%29.98 "Hg10 mi
5:58 PM46 °FClear.13 mph51%29.96 "Hg10 mi
4:58 PM47 °FClear.17 mph52%29.93 "Hg10 mi
3:58 PM51 °FPassing clouds.18 mph51%29.92 "Hg10 mi
2:58 PM53 °FPartly sunny.17 mph51%29.91 "Hg10 mi
1:58 PM53 °FOvercast.17 mph53%29.90 "Hg10 mi
12:58 PM53 °FPartly sunny.18 mph60%29.90 "Hg10 mi
11:58 AM53 °FPassing clouds.15 mph60%29.92 "Hg10 mi
10:58 AM52 °FSunny.13 mph66%29.95 "Hg10 mi
9:58 AM49 °FSunny.12 mph76%29.96 "Hg10 mi
Weather by CustomWeather, © 2014

See weather overviewHow to use our weather pages